Retour au catalogue

PEGASUS DEB

ActifPO
NORAD 39312·DEBRIS·🇺🇸 United States

Lancé May 19, 1994 depuis Vandenberg Space Force Base

Loading…

Prochains Passages (prochaines 24 heures)

TLE

FraisSource: Space-Track

Époque: Sep 11, 2026, 09:04 UTC

1 39312U 94029AEX 26254.37801407  .00002644  00000-0  31934-3 0  9990
2 39312  81.9732 294.7321 0190107 177.1577 183.0762 14.71282758701775

Suivez PEGASUS DEB en temps réel avec AllMySat

Download on the App Store